C4984 Weather Reports


Display with metric or nautical units.
time (UTC)temp
F
wind
direction
speed
MPH
gust
MPH
rain 1hr
in
rain 24hr
in
rain mn
in
humidity
%
barometer
mb
20260906104615 71 16 0.0 0.0 0.00 0.00 0.00 99 1007.3
20260906103557 71 16 0.0 1.0 0.00 0.00 0.00 99 1006.9
20260906102558 71 16 0.0 1.0 0.00 0.00 0.00 99 1006.8
20260906100446 71 20 0.0 2.0 0.00 0.00 0.00 99 1006.5
20260906095500 71 7 0.0 2.0 0.00 0.00 0.00 99 1006.4
20260906093343 71 5 0.0 2.0 0.00 0.00 0.00 99 1006.3
20260906092317 71 15 0.0 2.0 0.00 0.00 0.00 99 1006.2
20260906091313 71 13 0.0 2.0 0.00 0.00 0.00 99 1006.1
20260906090257 71 30 0.0 1.0 0.00 0.00 0.00 99 1006.1
20260906085310 72 25 0.0 1.0 0.00 0.00 0.00 99 1006.0
20260906084239 72 13 0.0 1.0 0.00 0.00 0.00 99 1006.2
20260906083216 72 13 0.0 0.0 0.00 0.00 0.00 99 1006.2
20260906082232 72 13 0.0 1.0 0.00 0.00 0.00 99 1006.2
20260906081212 72 31 0.0 1.0 0.00 0.00 0.00 99 1005.8
20260906080159 71 83 0.0 2.0 0.00 0.00 0.00 99 1005.8
20260906072901 71 73 0.0 1.0 0.00 0.00 0.00 99 1005.7
20260906071840 71 15 0.0 0.0 0.00 0.00 0.00 99 1005.7
20260906070849 71 15 0.0 0.0 0.00 0.00 0.00 99 1005.6
20260906065903 71 15 0.0 0.0 0.00 0.00 0.00 99 1005.6
20260906064909 71 15 0.0 0.0 0.00 0.00 0.00 99 1005.6
20260906063847 71 15 0.0 0.0 0.00 0.00 0.00 99 1005.7
20260906062856 72 15 0.0 0.0 0.00 0.00 0.00 99 1005.6
20260906061903 72 15 0.0 0.0 0.00 0.00 0.00 99 1005.6
20260906060854 72 15 0.0 0.0 0.00 0.00 0.00 99 1005.5
20260906055822 72 15 0.0 0.0 0.00 0.00 0.00 99 1005.5
20260906054805 72 15 0.0 0.0 0.00 0.00 0.00 99 1005.5
20260906053800 72 15 0.0 0.0 0.00 0.00 0.00 99 1005.9
20260906052755 72 15 0.0 0.0 0.00 0.00 0.00 99 1005.9
20260906051730 72 15 0.0 0.0 0.00 0.00 0.00 99 1005.9
20260906045532 72 15 0.0 0.0 0.00 0.00 0.00 98 1005.9
20260906044549 72 15 0.0 0.0 0.00 0.00 0.00 98 1005.9
20260906043524 73 15 0.0 1.0 0.00 0.00 0.00 99 1005.8
20260906042515 73 15 0.0 1.0 0.00 0.00 0.00 98 1006.0
20260906041527 73 15 0.0 0.0 0.00 0.00 0.00 98 1006.0
20260906040539 73 15 0.0 1.0 0.00 0.00 0.00 98 1005.9
20260906035526 73 15 0.0 1.0 0.00 0.00 0.00 98 1006.0
20260906033419 73 15 0.0 1.0 0.00 0.00 0.00 98 1006.0
20260906032422 73 15 0.0 1.0 0.00 0.00 0.00 98 1006.2
20260906031412 73 15 0.0 1.0 0.00 0.00 0.00 98 1006.2
20260906030347 73 15 0.0 1.0 0.00 0.00 0.00 98 1006.2
20260906025346 73 15 0.0 1.0 0.00 0.00 0.00 98 1006.2
20260906024343 73 15 0.0 1.0 0.00 0.00 0.00 98 1006.2
20260906023338 74 15 0.0 1.0 0.00 0.00 0.00 98 1006.2
20260906022357 74 15 0.0 1.0 0.00 0.00 0.00 98 1006.3
20260906020222 74 203 0.0 1.0 0.00 0.00 0.00 98 1006.4
20260906015210 74 203 0.0 0.0 0.00 0.00 0.00 98 1006.6
20260906014201 74 203 0.0 0.0 0.00 0.00 0.00 98 1006.5
20260906012027 74 203 0.0 0.0 0.00 0.00 0.00 98 1006.6
20260906011034 74 203 0.0 0.0 0.00 0.00 0.00 98 1006.4
20260906004945 75 203 0.0 0.0 0.00 0.00 0.00 98 1006.2
20260906003956 75 203 0.0 0.0 0.00 0.00 0.00 98 1006.2
20260906001824 75 203 0.0 0.0 0.00 0.00 0.00 98 1005.7
20260906000754 75 203 0.0 0.0 0.00 0.00 0.00 97 1005.4
20260905235721 76 203 0.0 0.0 0.00 0.00 0.00 98 1005.2
20260905234726 76 203 0.0 0.0 0.00 0.00 0.00 98 1005.2
20260905233712 76 203 0.0 0.0 0.00 0.00 0.00 98 1004.8
20260905231600 76 203 0.0 0.0 0.00 0.00 0.00 98 1004.9
20260905230554 76 203 0.0 0.0 0.00 0.00 0.00 98 1004.5
20260905225543 76 203 0.0 0.0 0.00 0.00 0.00 98 1004.6
20260905223417 76 153 0.0 0.0 0.00 0.00 0.00 99 1004.6
20260905222348 76 153 0.0 1.0 0.00 0.00 0.00 98 1004.8
20260905221411 76 164 0.0 0.0 0.00 0.00 0.00 98 1004.8
20260905220344 75 164 0.0 0.0 0.00 0.00 0.00 98 1004.8
20260905214127 75 182 0.0 1.0 0.00 0.00 0.00 98 1004.7
20260905213148 75 182 0.0 0.0 0.00 0.00 0.00 98 1004.7
20260905212122 75 182 0.0 0.0 0.00 0.00 0.00 98 1004.7
20260905211122 74 182 0.0 0.0 0.00 0.00 0.00 98 1004.3
20260905210140 74 182 0.0 0.0 0.00 0.00 0.00 97 1004.3
20260905203920 74 30 0.0 0.0 0.00 0.00 0.00 97 1004.3
20260905202859 73 30 0.0 0.0 0.00 0.00 0.00 97 1004.7
20260905201909 73 30 0.0 0.0 0.00 0.00 0.00 96 1004.7
20260905200922 73 30 0.0 1.0 0.00 0.00 0.00 96 1004.9
20260905195916 73 30 0.0 4.0 0.00 0.00 0.00 96 1004.9
20260905194859 73 30 0.0 1.0 0.00 0.00 0.00 94 1005.2
20260905193844 73 30 0.0 0.0 0.00 0.00 0.00 92 1005.8
20260905192843 73 0 1.0 4.0 0.00 0.00 0.00 91 1006.7
20260905191825 74 256 1.0 9.0 0.00 0.00 0.00 90 1006.7
20260905184503 93 230 0.0 0.0 0.00 0.00 0.00 64 1004.2
20260905183435 94 247 0.0 0.0 0.00 0.00 0.00 61 1004.2
20260905182413 94 181 0.0 4.0 0.00 0.00 0.00 58 1004.3
20260905181410 95 191 1.0 4.0 0.00 0.00 0.00 58 1004.9
20260905175244 95 63 0.0 3.0 0.00 0.00 0.00 56 1005.3
20260905172015 94 0 0.0 4.0 0.00 0.00 0.00 58 1005.8
20260905165906 94 126 0.0 5.0 0.00 0.00 0.00 60 1005.9
20260905164931 94 194 1.0 5.0 0.00 0.00 0.00 58 1005.9
20260905163925 95 138 0.0 4.0 0.00 0.00 0.00 57 1005.9
20260905162917 95 184 0.0 5.0 0.00 0.00 0.00 58 1005.9
20260905161908 94 179 0.0 5.0 0.00 0.00 0.00 58 1006.3
20260905160852 94 106 0.0 4.0 0.00 0.00 0.00 59 1006.4
20260905155852 93 11 0.0 4.0 0.00 0.00 0.00 60 1006.8
20260905153739 91 9 0.0 3.0 0.00 0.00 0.00 66 1007.0
20260905152721 90 142 1.0 4.0 0.00 0.00 0.00 67 1007.0
20260905151700 89 136 2.0 5.0 0.00 0.00 0.00 68 1007.0
20260905145527 89 127 0.0 4.0 0.00 0.00 0.00 71 1007.0
20260905144515 88 124 0.0 2.0 0.00 0.00 0.00 72 1007.0
20260905143523 87 56 0.0 3.0 0.00 0.00 0.00 73 1007.0
20260905142542 86 1 0.0 2.0 0.00 0.00 0.00 76 1006.8
20260905141530 85 200 0.0 5.0 0.00 0.00 0.00 77 1006.8
20260905140540 84 98 0.0 5.0 0.00 0.00 0.00 80 1006.7
20260905135529 82 190 0.0 4.0 0.00 0.00 0.00 83 1006.8
20260905131031 77 211 0.0 3.0 0.00 0.00 0.00 91 1006.6
20260905123743 75 177 0.0 1.0 0.00 0.00 0.00 95 1007.1
20260905122713 74 165 0.0 0.0 0.00 0.00 0.00 96 1006.9
20260905121647 74 205 0.0 2.0 0.00 0.00 0.00 96 1006.9
20260905120703 73 285 0.0 1.0 0.00 0.00 0.00 97 1006.8
20260905115727 73 282 0.0 0.0 0.00 0.00 0.00 97 1006.7
20260905113544 72 282 0.0 1.0 0.00 0.00 0.00 96 1006.6
20260905112550 72 323 0.0 0.0 0.00 0.00 0.00 96 1006.4
20260905111530 72 323 0.0 0.0 0.00 0.00 0.00 96 1006.4
20260905110536 72 323 0.0 0.0 0.00 0.00 0.00 96 1006.2
20260905105559 72 323 0.0 0.0 0.00 0.00 0.00 95 1006.0